Location: Ariel
(45.9570°N, 122.5700°W)
Time: 09:52:45
(UTC-07:00)

FO-29 - Visible Passes

Search period start: 19 May 2019 00:00
Search period end: 29 May 2019 00:00
Orbit: 801 x 1321 km, 98.5° (Epoch: 18 May)

Date Brightness Start Highest point End Pass type
(mag) Time Alt. Az. Time Alt. Az. Time Alt. Az.
19 May 12.4 02:21:44 10° ENE 02:24:37 13° NE 02:27:38 10° NNE visible
19 May 10.3 04:02:09 10° SSE 04:08:05 60° ENE 04:14:54 10° N visible
20 May 11.7 03:08:30 10° ESE 03:13:39 27° ENE 03:19:20 10° N visible
20 May 9.7 04:52:05 10° S 04:58:07 64° W 05:05:01 10° NNW visible
21 May 12.5 02:16:57 10° ENE 02:19:44 13° NE 02:22:38 10° NNE visible
21 May 10.4 03:57:06 10° SE 04:03:07 57° ENE 04:10:00 10° N visible
22 May 11.8 03:03:34 10° ESE 03:08:44 26° ENE 03:14:24 10° N visible
22 May 9.7 04:46:56 10° S 04:53:06 68° W 05:00:10 10° NNW visible
23 May 12.5 02:12:11 10° ENE 02:14:51 13° NE 02:17:38 10° NNE visible
23 May 10.6 03:52:03 10° SE 03:58:10 54° ENE 04:05:07 10° N visible
24 May 11.9 02:58:39 10° ESE 03:03:50 26° NE 03:09:28 10° N visible
24 May 9.8 04:41:48 10° S 04:48:06 73° WSW 04:55:19 10° NNW visible
25 May 12.6 02:07:27 10° ENE 02:10:00 12° NE 02:12:36 10° NNE visible
25 May 10.7 03:47:02 10° SE 03:53:13 52° ENE 04:00:13 10° N visible
26 May 12.0 02:53:45 10° ESE 02:58:56 25° NE 03:04:33 10° N visible
26 May 9.8 04:36:41 10° S 04:43:07 77° WSW 04:50:27 10° NNW visible
27 May 12.6 02:02:46 10° ENE 02:05:08 12° NE 02:07:33 10° NNE visible
27 May 10.8 03:42:02 10° SE 03:48:18 49° ENE 03:55:20 10° N visible
28 May 12.1 02:48:51 10° ESE 02:54:03 24° NE 02:59:37 10° N visible
28 May 9.9 04:31:35 10° SSE 04:38:09 82° WSW 04:45:36 10° NNW visible
